Theta_e
327 326 325 324 324 324 324 323 322 322 322 322 322 322 321 321 321 322 322 322 322 323 324 324 324 324 324 325 326 326 326 326 327 327 327 326 326 327 327 327 327 327
325 324 324 324 323 323 323 322 321 320 321 321 321 321 321 321 322 322 322 322 322 323 324 324 324 323 324 324 325 326 325 325 326 326 326 326 325 326 326 326 326 326
323 323 323 323 322 321 321 320 319 319 320 321 321 320 320 321 321 322 322 322 322 323 323 324 323 323 323 323 324 325 325 325 325 326 326 326 325 326 326 326 326 326
322 322 321 321 321 320 319 319 318 319 320 320 320 320 321 321 321 321 322 322 321 321 322 322 322 322 322 323 324 325 325 325 325 326 326 325 325 325 326 326 326 325
321 320 320 320 320 319 318 318 318 319 319 319 319 319 320 319 318 320 321 319 318 318 320 321 321 322 322 323 324 324 324 324 324 325 325 325 325 325 325 325 325 325
319 319 319 319 319 318 318 318 319 319 319 318 318 317 316 315 315 316 317 316 315 317 318 319 320 322 322 321 322 323 323 323 323 323 323 322 322 322 323 323 323 322
318 317 317 317 318 318 318 318 318 319 318 317 317 316 314 313 314 314 314 314 315 316 317 318 319 320 320 319 320 321 320 320 320 319 319 319 320 320 320 320 321 320
316 316 316 316 317 318 318 318 318 318 316 316 316 315 313 314 314 314 313 314 316 316 317 317 317 318 319 319 319 319 318 317 316 316 317 317 317 318 318 318 319 319
316 315 315 315 316 317 318 317 317 316 315 314 314 313 313 313 314 314 313 313 315 316 315 314 315 316 317 317 317 317 316 315 314 314 315 314 315 315 316 316 317 317
315 315 314 315 315 316 316 315 314 314 313 313 313 312 312 312 312 312 312 311 312 313 312 312 313 313 314 314 314 314 313 313 313 313 313 313 313 313 314 314 315 315
314 314 313 314 315 314 313 313 313 313 312 312 311 311 311 310 310 311 310 310 310 310 311 311 311 311 312 312 311 312 312 312 312 312 313 313 313 313 313 313 313 313
313 312 313 313 313 312 312 312 312 311 310 310 310 309 309 309 309 309 309 308 308 308 309 309 309 309 310 310 311 311 312 312 312 312 313 312 312 312 312 312 313 313
311 310 311 311 310 311 310 310 310 310 309 309 309 308 308 308 308 308 307 307 306 306 306 307 307 308 308 309 310 311 310 310 310 311 311 311 310 310 311 312 313 312
309 309 308 309 309 309 308 308 309 308 308 308 307 307 307 306 306 306 305 305 305 305 305 305 306 307 307 309 310 310 309 308 308 309 309 309 309 309 310 311 312 312
307 307 307 307 307 307 306 306 306 306 306 306 305 305 305 304 305 305 305 304 305 305 305 305 306 306 307 309 310 309 309 308 308 308 308 308 308 308 309 309 311 311
306 305 305 306 305 305 305 305 304 305 305 304 304 304 304 304 305 306 306 305 305 306 306 305 304 304 306 308 309 308 307 306 305 305 305 305 305 306 306 307 308 309
304 304 304 305 304 304 304 304 304 304 304 303 303 303 303 304 305 305 306 305 305 304 304 303 302 302 304 306 306 306 304 303 303 303 303 303 303 303 304 304 305 306
305 303 302 303 303 303 303 303 303 303 302 302 302 302 302 303 303 303 303 303 303 303 302 301 301 302 303 304 304 303 302 302 301 302 302 302 302 302 302 302 303 304
305 304 303 302 302 301 301 301 301 302 302 301 301 301 302 302 302 302 302 301 302 301 301 300 300 301 302 302 302 301 301 301 300 301 301 301 301 301 301 301 301 302
303 304 304 304 303 303 302 301 302 302 301 301 301 301 301 301 301 301 301 301 301 301 300 300 300 301 301 301 301 300 300 300 300 300 300 300 300 300 300 300 300 301
303 303 303 303 303 303 303 302 302 301 301 301 301 300 300 300 300 300 300 300 300 300 300 300 300 300 300 300 300 300 300 300 300 300 300 300 300 299 299 298 298 299
302 303 302 302 302 302 302 301 301 300 300 300 300 300 299 299 299 299 299 300 300 300 300 300 300 300 300 300 300 299 300 300 301 300 300 300 300 299 299 298 297 298
302 302 301 301 301 301 300 300 299 299 299 299 299 299 299 299 299 300 300 300 300 299 299 299 299 299 299 299 299 299 300 301 300 300 300 300 299 299 299 298 297 297
302 302 301 300 300 300 299 299 299 299 299 299 299 299 299 299 299 299 300 300 299 298 298 298 298 298 298 298 298 298 299 300 300 300 300 300 299 299 299 298 297 297
302 301 301 300 300 299 299 299 299 299 299 299 299 298 298 298 299 299 299 299 298 298 298 298 298 298 297 297 297 297 298 299 300 299 299 299 299 299 298 298 297 297
302 301 301 300 299 299 298 299 299 299 299 298 298 298 298 298 298 298 298 298 298 298 297 297 297 297 297 297 297 297 297 298 298 299 299 299 298 298 298 298 297 297
Wind_Speed
8 9 10 10 10 10 10 10 11 11 10 10 11 12 13 15 14 14 15 15 15 15 15 15 15 16 16 14 13 13 14 15 14 13 13 15 17 15 15 16 16 16
9 9 9 8 9 10 11 11 12 11 9 9 12 12 13 13 13 13 14 14 14 13 13 14 14 16 16 14 12 13 15 16 16 14 13 14 16 15 15 16 16 17
10 11 11 11 11 12 12 12 12 9 8 10 12 13 13 13 12 12 12 13 13 13 12 13 15 17 17 15 13 13 16 17 17 15 13 14 16 16 17 17 17 18
12 12 12 13 12 11 12 11 9 8 9 11 12 12 12 11 11 11 11 12 13 14 14 15 17 18 19 19 17 15 17 17 17 16 15 15 16 17 17 17 17 18
12 12 12 11 10 10 10 8 7 8 10 12 12 11 11 10 10 11 13 14 14 15 16 17 18 18 19 20 18 17 17 18 17 16 16 17 17 17 17 17 18 18
10 10 11 10 9 9 7 6 7 9 11 11 10 10 10 10 11 12 14 15 15 17 18 18 18 18 19 18 17 17 17 18 18 18 18 18 18 19 19 19 19 19
9 9 8 7 7 7 6 6 8 9 10 9 8 9 10 11 12 14 15 16 18 19 19 18 18 18 18 17 17 17 17 18 19 18 19 19 19 20 20 20 20 20
9 9 8 5 5 6 7 8 9 9 9 9 10 11 12 13 15 16 17 19 21 22 21 20 20 19 19 19 19 18 18 19 20 20 20 19 19 20 21 21 22 21
9 8 6 6 8 9 9 7 8 10 10 11 12 12 13 16 17 18 17 18 21 23 22 20 20 19 20 21 20 20 21 20 21 22 21 20 20 20 21 21 22 22
8 7 8 9 10 9 9 8 10 12 12 13 13 13 14 15 16 17 16 15 18 20 19 18 18 17 18 19 20 20 20 20 21 22 20 19 19 19 21 22 23 23
8 9 9 9 8 8 10 10 11 12 12 12 12 13 14 14 14 15 16 16 17 17 17 18 17 17 17 18 18 18 17 17 18 19 19 19 20 21 23 23 22 23
9 8 7 7 8 9 11 11 11 12 12 12 12 13 13 13 14 15 14 15 15 15 16 17 16 16 16 16 16 16 17 16 16 17 18 20 22 23 23 25 24 23
8 8 7 8 9 10 11 11 11 11 11 11 12 13 13 13 14 14 14 14 15 15 15 16 16 16 15 16 18 20 20 19 18 20 21 22 24 21 22 29 30 27
8 8 8 9 9 10 10 11 11 11 11 11 12 13 14 13 13 14 14 13 15 18 17 16 20 22 19 19 23 26 26 25 26 28 28 28 29 27 26 30 31 29
8 8 8 9 9 9 10 11 11 11 11 11 12 13 13 13 14 17 18 17 21 25 24 23 27 28 25 24 26 28 29 30 32 33 33 32 33 34 33 33 33 30
8 8 8 9 9 9 10 10 10 11 11 12 13 13 13 16 20 24 26 25 26 28 28 29 30 28 25 25 26 28 29 30 32 33 34 33 32 33 33 34 34 32
9 9 9 9 10 10 10 10 11 12 12 13 13 13 16 23 27 28 28 27 27 28 29 29 28 26 25 25 26 28 30 30 30 31 32 33 31 30 30 30 32 32
13 12 11 11 10 10 11 12 12 13 13 15 17 20 24 28 29 29 29 28 28 28 28 28 27 25 26 26 27 29 31 31 30 29 29 30 30 29 30 29 30 32
16 16 16 15 13 12 12 12 14 17 20 23 26 28 29 30 31 31 31 30 29 29 28 27 26 26 26 27 29 30 32 33 31 29 28 28 28 28 30 31 30 29
17 19 20 20 19 19 19 19 22 25 27 28 29 30 30 31 32 32 33 32 31 31 30 29 27 26 26 28 29 31 32 32 31 30 29 28 28 29 30 32 31 29
18 20 21 22 23 24 25 26 27 28 28 29 30 31 31 32 32 33 33 33 33 32 32 31 29 27 27 28 29 31 31 31 30 29 29 29 29 30 32 34 34 32
20 22 24 24 25 26 27 28 28 29 29 30 31 32 32 32 32 33 32 32 32 33 33 32 29 27 26 26 28 30 29 27 27 26 26 28 28 28 32 37 37 35
21 24 25 25 26 27 28 28 29 29 30 30 32 32 32 32 32 31 31 31 32 32 32 31 29 27 26 25 26 28 26 23 23 23 23 25 27 25 28 34 38 37
23 25 26 26 27 27 28 29 29 30 30 30 31 32 31 31 31 31 31 31 31 31 31 30 29 27 27 26 26 27 26 21 20 23 22 22 24 25 25 29 34 37
24 25 26 27 28 28 29 30 29 29 30 30 30 31 30 29 29 30 31 30 30 29 29 29 28 26 26 26 26 27 27 22 19 22 23 21 21 23 25 27 30 33
24 25 26 28 29 29 30 30 29 29 29 30 30 29 28 28 28 29 30 29 28 28 28 28 27 25 25 25 25 26 28 26 22 21 21 21 20 21 23 24 26 30
Wind_Direction
66 62 58 54 49 47 47 42 33 26 19 17 17 11 8 10 9 13 15 13 13 11 8 8 8 5 4 5 4 2 0 357 352 344 342 350 352 348 346 341 336 331
62 64 65 61 59 59 51 38 27 17 13 25 28 18 14 15 16 15 14 13 13 11 11 14 13 10 11 14 13 10 11 8 2 356 349 353 357 355 352 349 346 344
68 74 76 72 66 59 41 21 15 16 23 31 26 19 19 20 19 18 17 16 16 17 21 23 20 18 21 25 23 19 20 17 11 7 3 0 0 359 359 357 353 352
77 76 69 61 53 42 26 14 17 35 40 33 26 23 22 20 18 21 22 21 22 26 29 32 30 28 30 33 32 25 22 19 14 12 11 7 4 3 2 2 359 357
69 62 55 51 43 30 22 21 32 43 41 33 28 26 22 18 18 23 28 26 25 28 34 38 37 35 36 35 30 23 19 17 16 15 14 11 9 7 5 4 3 0
57 53 50 47 44 38 33 37 44 45 40 33 28 27 24 21 23 28 31 30 27 32 38 41 40 39 36 29 21 19 19 18 17 15 15 14 12 12 11 9 8 6
61 51 40 33 39 46 49 56 54 47 40 35 34 35 32 31 34 36 36 35 36 38 40 39 37 36 31 23 19 19 19 18 17 15 16 16 14 14 14 11 9 8
56 44 36 44 70 72 65 60 57 51 46 49 51 47 47 47 48 48 48 47 46 45 44 42 39 35 31 29 27 25 23 22 21 21 21 19 16 14 12 11 12 11
50 50 63 83 90 85 76 66 60 59 56 58 60 58 59 59 58 58 56 52 50 49 47 45 42 38 38 39 38 37 37 34 33 32 27 23 20 15 12 12 13 14
61 79 86 86 84 82 79 74 70 69 64 63 66 67 66 64 61 59 54 50 50 49 46 44 41 39 40 43 44 44 44 40 37 35 31 28 26 22 20 20 19 18
86 87 80 84 88 83 80 80 78 76 72 70 70 68 66 62 58 57 53 50 49 46 44 45 43 40 38 40 43 42 42 41 38 37 36 36 37 34 31 28 25 23
93 83 83 96 94 87 86 87 85 82 78 75 72 67 65 61 59 57 53 50 48 45 45 44 42 43 41 39 40 41 43 44 40 39 39 39 40 38 35 35 34 31
93 88 93 95 89 90 94 91 88 85 79 77 74 70 67 62 58 57 55 53 50 47 47 44 45 48 45 42 48 51 50 47 43 44 42 39 39 37 37 41 42 37
101 96 92 90 90 94 96 93 91 87 82 80 77 73 68 61 56 56 56 55 55 55 54 51 53 56 56 57 60 61 58 54 52 52 50 45 44 43 41 42 42 40
105 99 91 90 93 93 92 92 89 84 80 76 73 70 65 59 60 66 67 64 64 64 63 60 60 61 63 67 67 65 63 60 59 57 55 52 50 49 47 45 45 43
99 97 95 94 93 91 90 88 84 81 78 74 71 68 65 67 72 74 74 71 69 68 66 65 64 63 65 68 70 69 66 62 59 57 55 52 49 47 45 44 45 44
103 99 97 96 94 91 90 87 85 82 77 74 73 71 73 77 78 77 75 74 72 70 68 66 65 64 65 67 69 69 68 63 59 56 54 51 47 43 41 40 40 41
120 111 103 98 94 92 92 89 86 82 79 80 81 82 82 81 79 78 76 75 74 73 70 68 66 66 67 67 67 68 67 65 60 56 53 50 48 44 42 41 40 39
123 117 111 107 102 99 97 93 92 91 90 90 89 87 85 83 81 79 77 76 75 74 72 70 68 68 69 69 69 69 68 66 63 59 55 51 48 46 44 43 42 39
122 118 115 112 110 108 105 102 100 98 96 95 92 90 88 84 82 80 78 76 75 73 72 70 69 69 71 71 71 70 68 67 64 60 57 54 51 48 45 44 43 40
121 119 116 114 112 109 107 105 102 100 98 96 94 92 89 86 83 81 79 78 76 74 72 70 68 68 70 72 72 70 68 66 64 61 58 56 53 50 49 48 47 45
123 121 118 115 112 110 108 106 104 102 99 97 95 93 90 88 85 82 80 78 76 74 71 68 65 64 66 68 70 70 67 64 63 61 58 57 54 51 51 51 51 50
126 124 120 116 114 112 109 107 105 104 101 98 96 93 89 87 85 83 81 79 76 73 70 67 63 60 61 63 67 70 67 62 61 61 58 57 56 53 52 52 52 52
128 126 123 119 117 114 112 110 108 106 103 100 97 94 91 88 86 84 82 79 76 73 71 68 64 60 59 60 63 68 67 61 59 61 59 56 55 55 53 52 52 52
131 128 125 122 119 117 114 112 110 107 104 102 99 95 93 90 88 86 83 80 77 74 71 70 66 61 58 58 59 64 66 64 60 60 59 57 55 55 54 53 52 51
133 130 127 124 121 119 116 114 111 109 107 104 100 97 94 91 89 86 84 80 77 73 71 69 67 62 58 58 58 60 64 65 63 60 58 57 56 55 52 51 50 50